{"data":{"norad_id":43228,"epoch":"2026-09-19T08:16:34.430880Z","epoch_age_seconds":125588,"freshness":"FRESH","line1":"1 43228U 18023A   26262.34484295 -.00000220  00000+0  00000+0 0  9993","line2":"2 43228   0.0464  36.8188 0003283 104.3932 311.1958  1.00272764 31356","mean_motion":1.00272764,"eccentricity":0.0003283,"inclination_deg":0.0464,"raan_deg":36.8188,"arg_perigee_deg":104.3932,"mean_anomaly_deg":311.1958,"bstar":0,"rev_number":3135,"period_min":1436.0828828853,"perigee_km":35772.477922783,"apogee_km":35800.163105587,"semimajor_km":42164.457514185,"source":"CELESTRAK","updated_at":"2026-09-20T09:00:35.259041Z"}}